Weather in Yên Bái

Vietnam     21°42′42″N   104°53′07″E
temp.,
°C
wind,
m/s
gust,
m/s
humid.,
%
clouds,
%
prec.,
mm/h
press.,
hPa
HPBL,
m
16 april, fri
fri1601:00+24se259399 0.8 1009213
04:00+24se139499 0.6 1009161
07:00+24sse239499 1.6 1011111
10:00+25se249170 0.5 1012304
13:00+27se257973 1.6 1010557
16:00+28se2575100 0.8 1007485
19:00+25se2588100 3.3 1010111
22:00+24se379064 0.9 1013241
17 april, sat
sat1701:00+23se269479 1.9 1012239
04:00+23se2394100 0.4 1011152
07:00+23se2594100 5.4 1013263
10:00+23se3893100 3.4 1015622
13:00+25se3682100 4.3 1012659
16:00+24ese2589100 2.8 1011235
19:00+23ene0195100 8.1 101259
22:00+22ene1198100 10.4 1014146
18 april, sun
sun1801:00+22ene2296100 16.1 1013165
04:00+21ene1294100 3.9 1012175
07:00+21ene1195100 6.3 1014127
10:00+21ene1194100 2.7 1015205
13:00+22e1290100 3.3 1012378
16:00+21ene1292100 0.4 1010188
19:00+21ne0193100 0.9 101287
22:00+21nne0193100 0.4 1013107
19 april, mon
mon1901:00+21sse0094100 0.7 101197
04:00+21ese1295100 0.6 1011152
07:00+21ese2394100 1.3 1012217
10:00+21ese2293100 0.6 1013222
13:00+21ese1288100 0.7 1010372
16:00+22nw108796 0.1 1008211
19:00+22nw1189100 0.1 100967
22:00+22ese0193100 0.4 1010117
20 april, tue
tue2001:00+21se4994100 1.8 1010535
04:00+21se3994100 0.6 1009546
07:00+21se2595100 1.4 1011353
10:00+22se2493100 0.5 1012348
13:00+23e139099 0.8 1009370
16:00+23n3490100 0.1 1007258
19:00+23nw1189100 0.3 100870
22:00+23ene1192100 0.5 101071